Regional Weather Roundup
Issued by NWS

Home | Current Version | Previous Version | Graphics & Text | Print | Product List | Glossary On
Versions: 1 2 3 4 5 6 7 8 9 10 11 12 13 14 15 16 17 18 19 20 21 22 23 24 25 26 27 28 29 30 31 32 33 34 35 36 37 38 39 40 41 42 43 44 45 46 47 48 49 50
000
ASUS43 KTOP 230508
RWRKS

WEATHER ROUNDUP FOR KANSAS
NATIONAL WEATHER SERVICE GOODLAND KS
1200 AM CDT WED JUL 23 2014

NOTE:  "FAIR" INDICATES FEW OR NO CLOUDS BELOW 12,000 FEET WITH NO
SIGNIFICANT WEATHER AND/OR OBSTRUCTIONS TO VISIBILITY.

KSZ001>006-013>018-027>032-041>047-230600-
NORTHWEST KANSAS

CITY           SKY/WX    TMP DP  RH WIND       PRES   REMARKS
GOODLAND       CLEAR     74  68  81 E9        30.25R
HAYS           CLEAR     57 N/A N/A N5        30.15R
HILL CITY      CLEAR     80  69  69 E15       30.18R
RUSSELL        MOCLDY    83  74  74 NE9       30.13R
$$

KSZ061>065-074>080-084>089-230600-
SOUTHWEST KANSAS

CITY           SKY/WX    TMP DP  RH WIND       PRES   REMARKS
DODGE CITY     CLEAR     73  63  70 S8        30.17S
ELKHART          N/A     73  61  66 S8          N/A
GARDEN CITY    CLEAR     78  63  59 S8        30.19R
GREAT BEND     CLEAR     77  68  73 SW5       30.11R
LIBERAL        PTCLDY    77  64  65 S5        30.21R
PRATT          CLEAR     77  68  73 S5        30.15R
$$

KSZ066>073-081>083-090>101-230600-
SOUTHEAST KANSAS

CITY           SKY/WX    TMP DP  RH WIND       PRES   REMARKS
CHANUTE        CLEAR     81  75  82 SW9       30.06S
COFFEYVILLE    CLEAR     81  76  84 S9        30.06R
HUTCHINSON     CLEAR     79  68  69 S3        30.10R
MEDICINE LODGE   N/A     83  72  69 S5        30.10S
NEWTON         CLEAR     82  68  61 SW10      30.13R
PARSONS        CLEAR     79  75  87 S5        30.07S
WICHITA INTL   CLEAR     81  73  76 CALM      30.09R
WICHITA JABRA  CLEAR     83  73  72 SW8       30.09R
WICHITA MCCONL CLEAR     80  77  89 S8        30.10R
WINFIELD       CLEAR     80  75  84 S5        30.09R
$$

KSZ007>012-019>026-033>040-048>060-102>105-230600-
NORTHEAST KANSAS

CITY           SKY/WX    TMP DP  RH WIND       PRES   REMARKS
CONCORDIA      CLEAR     79  69  71 NE9       30.14R
EMPORIA        CLEAR     83  72  69 N8        30.07R
LAWRENCE       CLEAR     85  78  80 N12       30.07R HAZE    HX  96
MANHATTAN      CLEAR     84  75  74 NE14      30.10R
MARYSVILLE     CLEAR     77  72  83 NE8       30.14R
OLATHE IND     CLEAR     84  76  76 E5        30.07R
OLATHE EXE     CLEAR     83  76  79 CALM      30.06R
SALINA         CLEAR     89  73  59 NE9       30.09R HX  97
TOPEKA BILLARD CLEAR     84  79  85 N12       30.08R HX  96
TOPEKA FORBES  CLEAR     85  78  80 N9        30.08R HX  96
$$


USA.gov is the U.S. government's official web portal to all federal, state and local government web resources and services.